{"data":{"norad_id":41592,"epoch":"2026-05-24T23:22:38.556768Z","epoch_age_seconds":80383,"freshness":"FRESH","line1":"1 41592U 16039B   26144.97405737  .00000000  00000+0  00000+0 0  9997","line2":"2 41592   0.0150 322.3747 0001572 105.5065 103.9719  1.00269056 36394","mean_motion":1.00269056,"eccentricity":0.0001572,"inclination_deg":0.015,"raan_deg":322.3747,"arg_perigee_deg":105.5065,"mean_anomaly_deg":103.9719,"bstar":0,"rev_number":3639,"period_min":1436.1359899509,"perigee_km":35780.731600177,"apogee_km":35793.988432439,"semimajor_km":42165.497016308,"source":"CELESTRAK","updated_at":"2026-05-25T13:38:14.004659Z"}}